Regional Weather Roundup
Issued by NWS

Home | Current Version | Previous Version | Text Only | Print | Product List | Glossary On
Versions: 1 2 3 4 5 6 7 8 9 10 11 12 13 14 15 16 17 18 19 20 21 22 23 24 25 26 27 28 29 30 31 32 33 34 35 36 37 38 39 40 41 42 43 44 45 46 47 48 49 50
000
ASUS44 KOUN 012010
RWROK

WEATHER ROUNDUP FOR OKLAHOMA
NATIONAL WEATHER SERVICE NORMAN OK
300 PM CDT WED JUL 01 2015

NOTE: "FAIR" INDICATES FEW OR NO CLOUDS BELOW 12,000 FEET WITH NO
      SIGNIFICANT WEATHER AND/OR OBSTRUCTIONS TO VISIBILITY.

OKZ001>007-009>012-014-015-017-012100-
NORTHWEST OKLAHOMA AND THE PANHANDLE

CITY           SKY/WX    TMP DP  RH WIND       PRES   REMARKS
GAGE           MOSUNNY   97  63  32 SW14      29.87F HX  98
GUYMON         SUNNY     99  52  20 N8G20     29.92S HX  96
ENID/WOODRING  MOSUNNY  102  63  27 S20G28    29.80F HX 104
$$

OKZ016-021>023-033>039-044-045-012100-
SOUTHWEST OKLAHOMA

CITY           SKY/WX    TMP DP  RH WIND       PRES   REMARKS
LAWTON/REGL    SUNNY     94  67  41 SW17G26   29.90F HX  97
LAWTON/FT SILL SUNNY     94  71  46 SW17G23   29.89F HX 100
FREDERICK      SUNNY     96  68  39 SW21G28   29.89F HX 101
CLINTON        SUNNY     96  66  37 S22G30    29.92F HX  99
HOBART         SUNNY     95  66  38 S20       29.90F HX  98
ALTUS AFB      SUNNY     97  67  37 SW10G22   29.90S HX 101
$$

OKZ018>020-024>031-012100-
CENTRAL OKLAHOMA

CITY           SKY/WX    TMP DP  RH WIND       PRES   REMARKS
OKLAHOMA CITY  PTSUNNY   95  68  41 SW20G30   29.89F HX  99
OKC/WILEY POST MOSUNNY   95  69  42 SW16G26   29.88F HX 100
OKC/TINKER AFB PTSUNNY   92  70  49 S20       29.88F HX  98
STILLWATER     SUNNY     97  68  38 S18G29    29.84S HX 102
GUTHRIE        MOSUNNY   97  68  38 SW16G24   29.85F HX 102
$$

OKZ008-013-054>072-012100-
NORTHEAST OKLAHOMA

CITY           SKY/WX    TMP DP  RH WIND       PRES   REMARKS
TULSA          PTSUNNY   95  71  45 S21G26    29.85F HX 102
TULSA/JONES    MOSUNNY   95  70  44 S17G24    29.86S HX 101
PONCA CITY     MOSUNNY   98  66  34 S13G25    29.79F HX 101
BARTLESVILLE   MOSUNNY   93  75  55 S12G21    29.84S HX 104
MUSKOGEE       PTSUNNY   90  74  59 S16G22    29.91F HX  99
$$

OKZ032-040>043-046>053-073>077-012100-
SOUTH CENTRAL/SOUTHEAST OKLAHOMA

CITY           SKY/WX    TMP DP  RH WIND       PRES   REMARKS
ARDMORE/DWNTWN SUNNY     90  64  43 SW10G20   29.93F HX  91
MCALESTER      SUNNY     90  73  57 SW16      29.92F HX  98
$$



USA.gov is the U.S. government's official web portal to all federal, state and local government web resources and services.